Weather in Drogobych

Ukraine / Lviv District     49°21′13″N   23°30′32″E
temp.,
°C
wind,
m/s
gust,
m/s
humid.,
%
clouds,
%
prec.,
mm/h
press.,
hPa
HPBL,
m
20 september, mon
mon2000:00+6wnw41091100 0.0 10141079
03:00+6nw2794100 0.2 1014934
06:00+5nnw2497100 0.3 1015270
09:00+5nnw3798100 0.6 1016485
12:00+6wnw3690100 0.2 1017861
15:00+6nw3790100 0.4 1017709
18:00+5wnw3890100 0.1 1019762
21:00+5nw3892100 0.3 1020739
21 september, tue
tue2100:00+4wnw3890100 0.1 1022782
03:00+4w3890100 0.2 1023570
06:00+4w388590 0.0 1023498
09:00+6w487499 0.0 10241152
12:00+9nw586195 0.0 10241451
15:00+9nw586193 0.1 10241447
18:00+8wnw5964100 0.0 10241362
21:00+7w2573100 0.0 1025215
22 september, wed
wed2200:00+6wnw1283100 0.1 102540
03:00+6wsw2282100 0.1 102343
06:00+6wsw2585100 0.1 1022156
09:00+6wnw2593100 0.7 1022897
12:00+5nw3596100 1.7 1022926
15:00+6w349199 2.3 1022494
18:00+6w3788100 0.0 1021543
21:00+6wsw269386 0.3 1021188
23 september, thu
thu2300:00+6w269293 0.4 1021205
03:00+6w2593100 0.9 1020151
06:00+5w249569 0.5 102091
09:00+6wsw2493100 0.7 1020190
12:00+10wnw3675100 0.3 10191189
15:00+11wnw366853 0.5 10181094
18:00+11wsw477172 0.1 1017756
21:00+9sw387733 0.1 1016313
24 september, fri
fri2400:00+7ssw41385100 0.0 1015408
03:00+9sw8187199 0.0 1012648
06:00+9sw102068100 0.0 1010688
09:00+10sw91968100 0.0 1009847
12:00+11wsw71371100 0.2 1010912
15:00+11wsw61269100 0.3 1011879
18:00+12wnw4973100 0.1 10121114
21:00+8w31077100 0.2 1014356